Cienfuegos, Cuba

8:06 AM CST on December 15, 2019 (GMT -0500)
Jaime Gonzalez

Weather History for MUCF - October, 2019

Change the Weather History Date:

Saturday, October 12, 2019

  Actual Average (WUND) Record (WUND)
Temperature  
Mean Temperature 80 °F -  
Max Temperature 89 °F - - (-1)
Min Temperature 71 °F - - (-1)
Cooling Degree Days 15    
Growing Degree Days 30 (Base 50)    
Moisture  
Dew Point 74 °F    
Average Humidity 84    
Maximum Humidity 100    
Minimum Humidity 59    
Precipitation  
Precipitation 0.00 in - - ()
Sea Level Pressure  
Sea Level Pressure 29.91 in    
Wind  
Wind Speed 2 mph ()    
Max Wind Speed 9 mph    
Max Gust Speed -    
Visibility 6.2 miles    
Events      
Averages and records for this station are not official NWS values.
T = Trace of Precipitation, MM = Missing Value Source: Averaged Metar Reports

Daily Weather History Graph

Daily Weather History Graph

Search for Another Location

Airport or City:

Astronomy

Oct. 12, 2019 Rise Set
Actual Time 7:16 AM CDT 6:59 PM CDT
Civil Twilight 6:54 AM CDT 7:21 PM CDT
Nautical Twilight 6:28 AM CDT 7:47 PM CDT
Astronomical Twilight 6:02 AM CDT 8:13 PM CDT
Moon 6:40 PM CDT (10/12) 6:10 AM CDT (10/12)
Length of Visible Light 12h 27m
Length of Day
11h 42m
Waxing Gibbous, 99% of the Moon is Illuminated
Oct 12
Waxing Gibbous
Oct 13
Full
Oct 21
Last Quarter
Oct 27
New
Nov 4
First Quarter

Hourly Weather History & Observations

Time (CDT) Temp. Heat Index Dew Point Humidity Pressure Visibility Wind Dir Wind Speed Gust Speed Precip Events Conditions
12:58 AM 73.4 °F - 71.6 °F 94% 29.95 in - Variable 1.2 mph - N/A   Unknown
1:59 AM 73.4 °F - 71.6 °F 94% 29.92 in - Variable 1.2 mph - N/A   Unknown
2:58 AM 73.4 °F - 71.6 °F 94% 29.89 in - Variable 1.2 mph - N/A   Unknown
3:59 AM 73.4 °F - 71.6 °F 94% 29.89 in - Variable 1.2 mph - N/A   Unknown
4:58 AM 73.4 °F - 71.6 °F 94% 29.89 in - Variable 1.2 mph - N/A   Unknown
5:58 AM 71.6 °F - 71.6 °F 100% 29.89 in - Variable 1.2 mph - N/A   Unknown
6:58 AM 73.4 °F - 73.4 °F 100% 29.92 in - Variable 1.2 mph - N/A   Unknown
7:59 AM 73.4 °F - 73.4 °F 100% 29.92 in - Variable 1.2 mph - N/A   Unknown
8:50 AM 77.0 °F - 75.2 °F 94% 29.92 in - Variable 1.2 mph - N/A   Clear
9:51 AM 82.4 °F 90.9 °F 77.0 °F 84% 29.92 in - Variable 1.2 mph - N/A   Clear
10:50 AM 86.0 °F 96.9 °F 77.0 °F 74% 29.92 in 6.2 mi Variable 1.2 mph - N/A   Partly Cloudy
11:50 AM 87.8 °F 95.6 °F 73.4 °F 62% 29.92 in 6.2 mi Variable 1.2 mph - N/A   Partly Cloudy
12:57 PM 89.6 °F 98.2 °F 73.4 °F 59% 29.92 in 6.2 mi ESE 5.8 mph - N/A   Partly Cloudy
1:50 PM 87.8 °F 97.6 °F 75.2 °F 66% 29.89 in 6.2 mi SW 9.2 mph - N/A   Scattered Clouds
2:50 PM 87.8 °F 99.7 °F 77.0 °F 70% 29.89 in 6.2 mi SW 9.2 mph - N/A   Scattered Clouds
3:50 PM 87.8 °F 97.6 °F 75.2 °F 66% 29.86 in 6.2 mi SW 8.1 mph - N/A   Partly Cloudy
4:59 PM 86.0 °F 95.1 °F 75.2 °F 70% 29.86 in - SSW 6.9 mph - N/A   Unknown
5:59 PM 86.0 °F 96.9 °F 77.0 °F 74% 29.89 in - SSW 5.8 mph - N/A   Unknown
6:59 PM 82.4 °F 90.9 °F 77.0 °F 84% 29.92 in - SW 3.5 mph - N/A   Unknown
7:59 PM 80.6 °F 86.2 °F 75.2 °F 84% 29.92 in - North 4.6 mph - N/A   Unknown
8:58 PM 77.0 °F - 73.4 °F 89% 29.95 in - ENE 6.9 mph - N/A   Unknown
9:58 PM 77.0 °F - 73.4 °F 89% 29.95 in - Variable 2.3 mph - N/A   Unknown
10:58 PM 75.2 °F - 71.6 °F 89% 29.95 in - Variable 2.3 mph - N/A   Unknown
11:58 PM 75.2 °F - 73.4 °F 94% 29.95 in - ENE 5.8 mph - N/A   Unknown